Wind_Speed
29 29 27 27 30 30 29 33 34 30 28 31 38 41 42 45 49 47 46 49 48 45 40 34 33 33 30 26 23 20 20 19 21 22 21 19 13 10 12 14 17 21 23 23 23 23 23 23 23 21 20 20 21 22 22 23 23 23 22 22 21 21 21
29 29 30 32 34 32 33 34 29 26 29 33 38 41 42 46 51 49 44 46 48 47 43 35 34 36 33 30 27 23 21 21 21 22 21 17 11 10 9 9 13 19 24 25 23 22 22 23 23 21 20 21 23 24 24 23 23 23 23 23 24 24 24
31 32 36 39 38 36 35 32 29 31 34 35 37 40 40 43 48 47 42 43 46 46 42 36 34 36 34 33 31 28 25 23 20 17 14 13 12 10 7 6 9 16 22 25 22 20 21 23 24 22 22 24 25 25 23 22 22 22 23 24 25 26 26
35 37 43 44 40 37 36 35 36 36 36 34 35 37 37 37 41 41 38 40 40 37 38 37 35 37 37 35 34 31 27 24 21 14 11 13 13 11 7 5 8 13 19 23 22 19 21 24 25 23 23 25 25 24 22 21 21 22 22 22 23 24 26
42 45 48 45 38 36 38 40 40 39 38 37 36 38 37 36 37 36 34 36 31 26 32 37 36 37 39 39 37 33 28 25 22 17 14 15 14 11 8 6 8 12 16 20 21 20 22 24 25 24 25 25 25 24 22 22 21 20 20 19 20 22 24
48 49 46 42 38 37 39 41 40 39 39 39 39 40 39 36 36 34 33 32 24 19 25 30 32 35 38 39 39 35 31 28 25 22 20 19 17 14 10 8 8 12 16 19 20 21 23 25 25 25 25 26 26 24 23 22 21 19 18 18 19 21 23
49 46 43 43 42 40 41 43 42 40 41 42 41 39 35 33 34 33 34 35 24 15 18 20 23 29 33 36 38 37 35 31 29 26 24 24 22 17 13 11 11 13 15 18 21 22 24 24 24 24 25 26 25 24 23 23 21 19 17 17 18 20 22
50 47 45 46 46 45 47 48 46 44 44 42 39 36 33 33 34 33 35 38 29 16 15 16 17 21 27 32 35 37 35 32 31 28 25 25 24 20 17 14 15 17 18 19 21 23 24 23 22 24 25 26 26 25 25 23 20 18 17 17 18 19 20
55 54 52 53 53 52 53 52 49 47 44 41 40 38 38 39 39 37 37 40 35 20 16 17 15 17 24 29 32 36 35 33 32 30 28 27 26 23 20 17 18 21 22 22 22 23 23 22 21 22 25 27 27 26 25 22 20 19 18 17 17 18 18
61 60 59 58 56 55 54 52 51 48 44 44 44 43 45 46 44 42 41 41 38 26 19 19 17 17 22 26 30 35 36 35 34 33 32 30 28 26 22 20 21 24 25 23 22 23 24 23 22 21 24 27 28 27 25 22 21 19 18 17 17 17 17
65 62 59 53 50 52 54 52 50 49 47 46 46 47 50 48 45 43 41 40 38 31 23 20 20 19 20 22 25 30 34 35 35 36 36 35 33 29 24 23 24 27 27 24 21 22 23 23 23 22 25 28 28 27 25 22 21 20 18 18 17 16 17
67 65 61 54 50 51 53 52 50 50 48 47 49 52 51 47 46 44 39 37 38 35 27 22 21 21 20 20 21 25 32 36 36 38 38 37 35 31 29 27 26 28 28 24 21 22 23 23 24 25 27 28 28 26 23 22 21 20 19 18 17 17 18
68 66 64 60 56 53 51 51 51 50 50 49 50 52 50 47 47 42 36 35 37 34 28 25 23 21 20 20 22 26 33 37 37 38 39 37 34 34 32 29 27 28 28 24 22 23 24 26 27 27 29 29 29 26 23 22 22 22 21 20 19 19 19
71 67 64 62 60 57 52 51 51 50 50 50 50 49 47 46 45 41 38 38 37 34 30 26 24 22 21 22 24 27 33 37 38 39 40 38 34 33 34 32 30 30 28 24 22 23 26 30 30 30 30 29 28 26 24 23 22 22 22 21 20 21 20
73 69 65 60 59 59 56 52 51 50 50 50 50 49 47 46 44 42 41 41 37 34 32 29 27 25 23 23 24 27 32 37 41 41 42 41 36 34 37 36 33 31 27 24 21 20 24 29 30 31 32 30 28 26 25 23 22 22 23 23 22 22 21
74 70 65 60 57 55 55 55 54 54 54 53 52 51 49 48 45 42 43 42 37 32 31 30 29 28 27 24 25 29 31 35 41 43 42 42 39 37 38 38 34 32 30 26 24 20 21 25 29 31 32 32 30 28 26 23 21 22 24 24 24 25 24
75 69 64 61 56 52 56 61 61 59 57 55 53 51 51 49 45 44 45 43 37 31 30 30 30 29 28 27 27 30 32 34 39 41 40 38 36 35 36 35 33 33 33 31 27 22 19 23 29 31 31 31 31 29 25 23 23 24 24 25 26 27 28
76 69 65 62 58 57 61 63 61 59 58 56 54 53 52 49 47 47 45 41 37 36 33 31 30 30 30 31 31 32 34 36 39 40 39 37 35 33 32 31 30 30 31 33 31 25 21 24 28 30 31 31 29 27 26 26 26 26 25 26 26 27 29
75 70 66 64 61 62 62 59 58 58 57 55 54 52 52 51 49 49 47 41 38 37 36 34 33 33 34 35 33 32 34 39 42 43 43 41 39 37 35 32 31 32 33 33 32 28 26 28 30 32 33 33 31 30 29 29 28 27 26 26 26 26 27
75 72 68 66 65 63 59 56 56 56 55 55 55 54 54 56 54 51 49 44 37 34 35 37 38 37 37 37 36 33 34 38 43 46 45 43 42 41 39 36 33 32 34 33 31 30 29 29 32 35 36 36 36 33 32 31 31 30 30 30 30 28 28
75 72 69 68 65 61 58 56 54 53 54 57 58 57 57 57 55 52 50 46 39 33 32 34 37 38 38 38 38 37 35 37 41 44 43 42 42 42 41 38 34 33 34 33 30 30 30 30 34 36 36 37 38 35 34 35 35 35 36 35 34 33 32
71 71 68 67 65 61 59 58 57 54 53 54 54 55 56 56 55 54 53 50 44 37 32 32 35 37 38 39 40 39 37 37 39 42 43 41 41 42 41 39 38 36 35 33 32 32 32 31 33 36 37 40 39 37 36 38 40 41 40 39 37 37 36
65 66 66 66 65 63 58 57 57 55 53 53 52 52 55 57 57 56 54 52 49 42 36 34 34 36 38 39 41 41 40 39 40 42 44 44 42 42 42 41 39 38 36 35 36 38 37 34 35 37 39 41 42 42 42 43 44 43 41 40 40 39 38
60 62 64 64 64 64 60 56 56 56 53 53 54 57 61 62 59 56 53 50 48 45 41 37 35 34 35 36 38 40 42 43 43 43 45 46 45 43 44 44 43 41 41 39 39 41 41 40 40 41 41 42 43 45 46 45 45 44 42 41 42 42 41
56 58 60 61 61 61 59 56 56 55 52 52 56 60 63 63 59 56 52 48 45 44 42 39 36 35 35 36 37 40 43 46 47 47 46 47 47 47 46 46 46 46 45 44 43 44 44 43 43 44 44 45 45 46 48 49 49 48 46 45 46 47 47
56 59 58 58 58 59 57 55 56 57 53 51 54 57 60 61 58 54 51 48 44 42 41 40 38 37 37 38 38 39 41 42 43 44 46 47 49 50 49 49 48 49 49 48 48 48 47 46 46 46 46 45 45 46 49 52 52 50 48 48 48 48 49
56 61 62 60 58 57 55 51 51 53 52 49 49 53 57 60 59 55 51 48 44 42 41 40 39 38 38 39 41 42 41 40 38 38 41 45 49 51 52 51 50 50 50 50 50 50 50 49 50 50 49 48 47 47 48 48 49 49 50 50 50 50 51
52 60 65 63 60 58 56 51 47 47 47 47 47 49 52 57 59 58 54 51 47 46 44 42 41 40 40 41 43 44 43 41 39 38 38 41 45 49 52 53 53 53 53 53 53 52 51 51 50 51 52 52 51 51 50 49 50 51 52 53 54 55 55
47 56 64 64 61 59 57 55 50 45 44 45 46 47 49 52 56 59 58 56 53 50 48 46 44 42 43 44 45 45 44 42 41 39 39 40 42 44 46 48 49 50 52 53 54 53 53 52 52 52 53 53 54 55 55 55 56 57 57 58 59 60 59
44 50 59 61 63 62 59 59 56 49 45 45 47 49 50 50 53 57 59 60 59 56 53 50 48 46 45 46 47 46 44 43 42 41 41 41 41 42 42 42 42 43 44 47 49 50 50 51 52 52 53 53 55 56 58 59 60 61 61 61 62 62 62
46 47 57 61 63 64 63 64 62 56 51 50 51 52 54 54 53 55 59 61 62 61 58 55 53 51 50 49 49 48 46 45 45 45 44 44 45 45 45 44 44 44 45 45 47 47 47 47 48 49 50 50 52 54 55 56 57 57 57 57 56 57 58
53 50 57 61 63 64 64 65 66 62 58 59 61 60 58 57 57 56 58 61 63 63 62 59 56 56 55 53 51 50 49 49 49 49 48 49 49 50 50 49 49 49 49 48 49 48 48 47 47 48 48 48 49 51 53 53 54 53 53 52 52 52 53
57 52 55 58 58 61 64 67 69 65 57 58 64 66 61 59 60 59 57 59 63 65 65 62 60 60 58 56 54 53 53 53 53 54 54 55 55 56 56 55 54 54 53 51 51 50 50 49 50 50 49 48 48 48 49 51 52 52 52 53 53 52 53
59 54 57 57 55 59 65 69 69 64 56 52 58 65 65 61 60 60 59 57 59 62 64 65 66 65 62 60 57 56 56 56 57 58 58 58 58 58 57 56 56 55 54 53 52 51 51 51 52 52 51 51 49 48 47 48 50 52 52 52 52 52 53
59 52 54 56 59 65 68 64 57 51 49 50 54 60 66 66 62 60 59 57 55 56 58 60 63 65 64 62 60 58 57 57 58 58 56 55 55 55 55 55 54 53 52 52 52 51 51 51 51 51 51 52 51 50 48 47 49 50 51 51 52 53 55
61 51 47 48 57 69 71 62 49 38 34 42 51 55 59 65 64 60 60 59 58 57 58 57 56 57 59 60 59 57 56 55 55 56 56 54 53 52 52 53 53 52 51 51 51 51 51 50 50 50 50 50 50 49 48 46 47 49 51 51 53 54 56
66 56 44 38 48 63 69 61 50 37 28 33 46 52 55 61 65 64 62 63 62 61 60 58 55 54 53 53 53 53 52 51 51 52 53 52 51 50 50 51 51 51 51 50 50 50 49 49 49 49 48 48 47 46 45 45 46 47 48 50 52 54 56
Wind_Direction
237 236 233 230 232 233 234 233 234 239 237 236 238 237 233 230 233 239 241 242 246 250 254 253 248 246 245 243 238 235 234 233 233 230 229 236 239 233 235 242 244 242 240 241 242 241 240 241 242 242 246 251 252 252 251 249 246 243 239 236 233 231 231
236 237 236 231 229 228 230 234 236 237 233 230 233 235 233 231 234 239 241 243 246 249 252 253 250 248 248 246 242 239 238 238 237 235 234 234 226 220 227 239 246 240 236 238 241 240 239 240 242 243 244 248 250 251 252 252 252 249 243 239 237 235 234
230 230 233 231 228 226 228 231 231 230 230 229 230 234 235 233 235 240 241 242 245 248 252 254 253 252 251 248 245 242 242 243 243 240 233 219 206 210 218 236 254 245 237 238 239 237 235 236 240 242 242 245 248 251 253 255 256 252 246 244 241 239 238
227 227 231 231 227 227 228 226 225 225 227 230 232 237 242 240 240 243 244 243 243 247 252 255 254 253 251 250 247 244 245 246 244 237 215 201 202 207 212 234 263 254 239 235 235 232 232 235 239 241 241 245 249 251 252 254 254 252 250 249 246 243 242
228 229 233 234 230 229 230 228 227 225 224 225 226 232 238 239 242 245 245 246 246 246 250 253 254 253 250 249 248 246 246 242 239 234 212 200 206 210 213 233 262 258 241 232 230 231 234 236 237 238 240 244 247 247 248 250 251 252 253 251 248 246 244
230 231 233 236 234 232 234 235 233 231 229 227 226 229 232 235 241 245 248 253 253 244 246 250 252 253 251 249 247 247 244 234 228 229 219 213 216 216 218 233 258 260 245 232 231 233 234 234 235 236 239 242 244 244 246 249 250 251 252 251 249 247 246
228 230 230 233 233 231 233 234 233 232 232 230 230 233 236 240 246 250 254 260 257 240 242 245 243 247 249 248 245 244 240 229 221 224 225 223 223 219 218 231 251 259 247 234 233 234 232 232 233 236 240 243 244 244 245 247 249 249 248 248 248 248 248
225 226 226 227 229 228 229 230 229 227 228 231 234 238 242 244 247 250 254 258 255 237 236 243 237 236 239 240 239 236 234 226 220 222 226 226 225 221 218 227 244 249 244 236 233 233 233 233 235 240 244 245 243 242 244 247 249 249 247 248 248 248 249
222 222 222 223 223 224 226 227 228 227 226 227 230 233 237 238 239 242 246 252 252 238 224 234 238 231 231 233 232 228 225 223 220 221 223 223 225 224 217 220 237 244 243 240 238 237 237 237 240 244 246 245 242 241 244 248 248 247 247 249 249 249 248
224 222 224 225 224 224 226 228 230 230 227 226 228 230 233 234 235 237 241 247 251 245 228 229 234 235 234 234 232 227 224 224 222 222 224 223 224 223 214 212 228 240 243 243 242 242 242 242 243 244 244 241 239 239 243 244 242 244 248 250 250 251 250
228 225 225 226 226 228 231 232 232 232 230 228 228 230 234 236 237 239 242 248 253 252 242 233 231 235 240 240 238 235 230 227 225 225 228 230 230 225 214 210 221 237 243 246 249 247 246 246 246 244 242 239 237 238 240 239 240 244 249 251 252 255 255
229 228 225 223 222 227 232 234 234 235 233 230 230 232 235 236 238 241 243 247 253 255 249 240 233 232 237 241 240 236 230 226 225 226 230 235 236 227 217 213 218 231 241 246 252 251 247 246 242 238 239 239 239 240 236 234 240 246 250 253 255 256 257
230 229 228 225 222 223 227 231 232 234 235 234 234 236 237 236 239 244 245 244 249 252 249 242 236 230 231 235 233 229 224 221 223 227 229 233 236 230 223 217 216 225 236 242 246 245 241 239 235 234 238 240 242 245 242 237 238 242 245 250 253 255 257
231 229 228 226 224 222 222 226 230 232 234 236 237 239 239 240 243 246 246 244 244 246 244 240 234 228 227 230 230 228 223 218 219 225 229 231 234 234 232 226 219 221 228 232 235 236 235 234 232 233 237 240 243 246 247 245 242 241 244 248 253 257 261
231 229 227 224 223 221 219 220 224 228 231 233 235 236 236 237 240 241 243 243 241 241 242 240 233 226 224 228 231 228 224 218 218 223 228 232 233 236 239 239 232 224 220 218 223 230 234 234 232 231 234 238 241 242 243 244 242 241 245 249 254 259 263
229 229 226 221 220 218 215 215 220 224 227 230 232 234 234 234 235 235 238 240 237 237 241 241 236 229 224 224 229 231 228 223 221 223 229 234 235 235 240 243 241 236 233 225 218 220 230 233 229 227 230 234 237 238 238 240 243 244 246 250 254 259 262
228 227 224 221 216 212 213 220 225 226 226 228 230 232 234 234 234 234 236 238 236 234 236 238 237 234 228 222 224 230 230 226 225 226 229 234 238 237 238 238 237 239 243 239 227 217 223 231 228 226 230 235 237 235 233 236 240 244 247 249 251 253 257
226 224 223 221 215 213 220 228 229 226 226 226 227 230 233 234 235 237 239 238 235 232 232 232 232 233 233 227 223 224 226 226 226 227 228 231 235 237 237 237 237 237 238 236 230 221 217 222 226 229 233 238 238 234 233 234 236 240 244 246 248 248 251
225 222 221 221 218 219 224 227 225 223 222 223 224 228 232 233 234 237 238 236 232 230 229 229 227 227 230 230 227 222 221 224 226 228 230 232 235 238 239 240 242 241 238 236 235 234 228 220 221 228 234 237 237 236 236 237 240 245 247 249 250 250 249
223 221 221 222 222 221 221 221 221 219 215 217 220 224 229 232 232 234 236 235 231 227 227 227 225 225 227 228 229 227 220 220 224 227 231 233 236 239 242 242 241 240 240 241 242 244 240 230 225 229 235 237 236 236 239 242 245 249 250 251 253 254 254
220 220 221 223 223 220 217 217 219 216 212 215 219 222 227 231 232 232 235 235 231 226 224 224 224 225 225 226 229 230 223 217 221 225 228 231 234 238 241 242 240 239 241 243 242 240 238 235 234 237 242 243 237 232 236 242 245 247 248 250 252 254 257
219 220 220 222 222 220 217 217 219 217 212 213 218 221 225 230 232 233 233 234 232 225 218 217 220 222 224 226 228 230 225 220 220 224 226 228 230 234 238 241 242 246 248 247 244 243 241 241 242 244 247 246 239 231 231 237 242 245 248 250 252 254 258
217 218 219 220 221 220 218 218 220 219 214 210 213 218 223 227 231 233 233 233 233 229 218 213 216 220 222 226 228 228 225 223 222 224 226 228 229 231 235 238 240 244 247 246 245 247 247 246 247 247 247 245 239 234 234 239 244 248 251 255 256 255 257
213 215 216 218 220 219 218 219 220 220 216 210 210 215 220 224 227 229 232 233 234 233 227 219 218 222 223 224 225 225 225 225 225 226 227 229 231 232 234 237 239 241 243 244 244 248 250 249 248 248 249 248 246 243 242 246 250 252 254 259 261 259 256
207 210 210 212 216 217 216 218 219 219 217 213 213 216 219 223 224 225 228 231 232 233 232 227 224 224 223 222 222 223 224 226 228 229 229 231 233 235 236 238 240 241 243 243 245 248 251 252 252 252 252 254 254 252 251 254 257 258 259 262 265 264 261
199 202 203 204 209 211 212 215 218 219 218 216 217 218 219 220 222 223 226 229 230 230 230 229 226 224 223 222 221 223 225 227 229 231 232 233 235 237 239 240 241 243 244 246 248 250 251 253 254 255 255 256 256 255 255 257 259 260 261 262 264 264 262
192 195 197 198 200 203 205 210 216 218 217 218 218 220 220 219 220 222 224 227 229 229 228 229 227 224 222 220 220 223 226 228 229 230 231 233 234 237 240 242 244 246 247 249 251 253 254 255 255 256 257 259 260 259 259 260 260 260 261 261 262 262 260
188 190 193 194 195 197 199 204 211 214 215 217 219 220 221 221 220 220 221 223 225 226 226 226 226 224 222 220 220 223 226 228 230 231 232 232 232 234 238 241 244 247 249 252 254 255 256 257 258 258 259 261 262 263 263 264 264 264 264 264 264 264 263
189 186 189 192 193 195 197 201 207 210 211 214 219 220 221 222 222 221 221 221 223 224 223 223 224 223 222 221 221 223 225 227 229 231 234 236 235 234 236 239 242 245 248 251 252 254 254 255 256 256 257 258 260 261 261 262 262 264 265 266 266 267 268
193 183 184 189 192 195 199 203 206 208 209 211 216 218 218 220 222 223 223 222 223 224 223 223 223 223 222 221 221 223 226 228 229 230 235 241 242 241 241 243 246 250 252 252 251 251 252 253 253 255 256 256 257 258 259 260 261 262 263 264 265 266 266
198 183 181 187 192 195 200 205 207 209 211 213 216 216 216 217 219 222 223 223 223 224 224 224 225 226 225 223 223 224 227 230 232 234 238 243 246 247 248 250 252 254 256 257 256 255 255 255 255 255 256 257 257 258 259 261 261 262 264 266 266 266 265
202 189 183 186 191 194 199 205 209 212 214 216 217 216 216 217 217 218 222 223 223 224 225 226 227 229 230 229 228 228 230 232 235 237 240 244 248 249 250 252 254 256 257 258 257 257 258 258 258 259 258 258 259 260 261 262 263 263 263 265 266 267 267
204 196 189 188 189 193 199 205 210 213 215 215 214 213 215 218 218 218 220 222 224 225 226 228 229 231 233 233 233 233 235 237 238 240 242 245 248 249 249 251 254 256 258 258 257 257 258 258 259 260 260 260 261 261 261 262 262 262 262 262 263 265 266
204 197 192 190 188 190 198 205 211 214 216 214 211 211 213 216 219 220 221 222 223 225 227 230 232 234 234 235 236 238 239 241 243 244 245 245 246 246 247 250 252 254 255 256 256 257 258 259 260 261 262 263 265 265 264 262 260 260 260 261 262 264 265
199 193 187 186 186 189 195 201 203 205 207 207 206 206 209 213 217 221 222 222 223 224 226 230 233 234 235 237 238 240 242 244 245 244 244 244 245 247 249 251 252 253 254 255 256 257 258 259 261 261 262 264 267 269 269 267 265 264 263 263 265 266 266
196 194 187 181 183 188 194 198 196 189 190 198 202 204 206 209 214 219 222 224 225 226 227 229 232 235 238 239 240 242 245 247 247 244 244 246 247 249 251 252 252 253 255 256 258 258 259 260 261 262 263 264 265 267 268 268 268 268 266 266 266 266 267
196 200 197 184 178 184 191 198 202 200 195 197 203 207 208 209 213 218 222 224 227 229 230 232 236 240 241 239 238 241 244 247 246 245 245 246 247 249 251 252 252 254 256 258 259 260 261 262 262 263 265 265 265 267 268 269 271 270 268 266 266 265 267
Height
5821 5823 5825 5826 5825 5827 5828 5827 5826 5830 5836 5838 5837 5837 5839 5840 5837 5837 5839 5838 5839 5843 5846 5851 5854 5856 5859 5862 5864 5866 5868 5870 5871 5873 5875 5877 5879 5881 5882 5883 5884 5885 5885 5886 5887 5889 5890 5891 5891 5893 5894 5895 5897 5897 5898 5899 5900 5901 5902 5902 5903 5904 5904
5818 5820 5821 5820 5820 5822 5823 5823 5827 5832 5833 5833 5832 5832 5834 5834 5831 5831 5835 5836 5837 5839 5841 5847 5851 5852 5856 5859 5861 5864 5866 5867 5869 5871 5873 5875 5877 5878 5879 5880 5881 5882 5883 5884 5885 5886 5888 5889 5890 5891 5892 5893 5893 5894 5895 5896 5897 5899 5900 5900 5901 5901 5902
5813 5814 5812 5811 5813 5816 5819 5822 5826 5826 5825 5826 5827 5826 5827 5828 5826 5827 5831 5834 5834 5835 5837 5843 5848 5850 5853 5856 5859 5862 5864 5865 5867 5869 5871 5872 5874 5875 5876 5877 5878 5879 5880 5881 5882 5884 5885 5887 5887 5888 5889 5890 5890 5891 5893 5894 5895 5896 5897 5898 5898 5899 5900
5806 5806 5802 5802 5808 5813 5816 5817 5818 5818 5820 5822 5823 5823 5823 5825 5825 5826 5829 5830 5830 5832 5836 5840 5845 5848 5851 5853 5855 5858 5861 5863 5865 5867 5868 5869 5871 5872 5873 5874 5876 5877 5878 5879 5880 5881 5883 5884 5885 5886 5886 5887 5888 5890 5891 5892 5893 5894 5894 5895 5896 5897 5897
5797 5796 5795 5799 5807 5810 5810 5810 5811 5813 5815 5817 5819 5819 5819 5822 5823 5824 5826 5825 5826 5832 5836 5839 5842 5845 5848 5850 5852 5855 5859 5861 5863 5865 5866 5867 5869 5870 5871 5872 5873 5874 5875 5876 5877 5878 5880 5881 5882 5883 5883 5884 5886 5887 5889 5890 5891 5891 5892 5892 5893 5894 5895
5789 5790 5794 5800 5804 5806 5806 5807 5809 5811 5813 5813 5813 5813 5815 5818 5819 5821 5822 5821 5825 5832 5835 5837 5840 5842 5844 5846 5849 5852 5855 5858 5860 5861 5863 5865 5866 5867 5868 5869 5871 5872 5873 5874 5875 5876 5877 5878 5879 5880 5881 5882 5884 5885 5887 5888 5888 5889 5889 5890 5890 5891 5891
5785 5788 5793 5795 5798 5801 5801 5800 5804 5808 5809 5809 5809 5811 5815 5818 5817 5819 5819 5817 5822 5831 5833 5835 5838 5839 5840 5843 5845 5849 5851 5854 5856 5857 5859 5861 5862 5864 5865 5867 5869 5870 5871 5872 5872 5872 5873 5874 5876 5877 5879 5880 5882 5884 5885 5885 5886 5886 5887 5887 5887 5888 5888
5781 5784 5787 5788 5789 5792 5791 5791 5796 5800 5802 5806 5809 5812 5815 5815 5814 5816 5816 5812 5818 5828 5832 5832 5834 5836 5836 5838 5840 5844 5847 5850 5852 5854 5856 5858 5859 5860 5862 5864 5866 5867 5868 5869 5869 5870 5870 5872 5873 5874 5876 5878 5880 5881 5882 5883 5884 5884 5884 5884 5884 5885 5886
5772 5774 5775 5775 5777 5780 5782 5785 5789 5794 5799 5804 5806 5807 5809 5808 5808 5811 5811 5808 5813 5824 5829 5829 5831 5832 5833 5834 5836 5839 5843 5846 5848 5851 5853 5854 5856 5857 5858 5861 5863 5864 5865 5866 5867 5868 5868 5870 5871 5872 5874 5876 5878 5879 5880 5881 5881 5881 5881 5882 5882 5883 5884
5762 5764 5766 5767 5771 5774 5777 5782 5786 5791 5796 5798 5799 5802 5801 5800 5803 5807 5807 5805 5810 5819 5825 5826 5828 5829 5830 5831 5832 5834 5838 5841 5844 5846 5849 5851 5852 5853 5854 5857 5859 5860 5861 5862 5864 5865 5866 5867 5868 5869 5871 5873 5875 5877 5878 5879 5879 5879 5879 5879 5880 5881 5881
5755 5760 5764 5768 5773 5774 5775 5779 5783 5787 5791 5793 5795 5795 5793 5795 5801 5802 5804 5806 5809 5815 5821 5824 5825 5826 5827 5829 5830 5831 5834 5836 5839 5842 5844 5846 5848 5850 5851 5852 5855 5856 5857 5859 5860 5861 5863 5864 5865 5867 5869 5871 5873 5874 5876 5876 5876 5877 5877 5877 5878 5879 5880
5747 5753 5758 5764 5767 5769 5771 5775 5779 5782 5786 5789 5789 5787 5788 5794 5797 5797 5802 5807 5807 5810 5817 5820 5822 5824 5825 5826 5827 5828 5830 5833 5835 5838 5840 5842 5844 5847 5848 5848 5850 5852 5854 5856 5857 5858 5859 5860 5862 5865 5866 5868 5870 5871 5873 5874 5874 5875 5875 5876 5877 5877 5878
5741 5746 5753 5757 5759 5761 5766 5769 5773 5777 5781 5783 5783 5783 5786 5791 5791 5794 5802 5806 5804 5807 5812 5816 5818 5821 5822 5823 5824 5825 5826 5829 5832 5834 5836 5838 5840 5843 5844 5845 5846 5848 5851 5853 5854 5855 5856 5858 5860 5862 5864 5865 5867 5868 5869 5870 5871 5872 5873 5874 5875 5876 5876
5733 5739 5745 5751 5752 5755 5758 5762 5767 5771 5774 5778 5780 5781 5785 5787 5788 5793 5798 5799 5800 5804 5808 5810 5814 5816 5818 5819 5820 5821 5822 5825 5828 5830 5832 5834 5837 5839 5841 5842 5843 5845 5847 5850 5851 5852 5854 5855 5858 5860 5861 5863 5864 5865 5866 5867 5869 5870 5871 5872 5873 5874 5875
5726 5732 5738 5744 5747 5749 5751 5754 5760 5764 5768 5772 5774 5777 5780 5781 5784 5789 5791 5792 5796 5801 5804 5806 5809 5811 5813 5815 5817 5818 5819 5820 5823 5825 5827 5830 5833 5836 5837 5839 5841 5842 5844 5846 5847 5849 5851 5852 5855 5857 5859 5861 5862 5863 5864 5865 5867 5868 5868 5870 5871 5872 5874
5718 5726 5730 5735 5740 5743 5743 5746 5751 5756 5761 5765 5768 5771 5773 5776 5780 5784 5785 5786 5792 5799 5802 5803 5805 5807 5809 5811 5813 5814 5815 5816 5819 5821 5823 5826 5829 5832 5834 5837 5840 5841 5842 5843 5844 5846 5848 5849 5852 5854 5856 5858 5860 5861 5861 5863 5864 5865 5866 5867 5869 5870 5872
5712 5720 5721 5726 5732 5732 5732 5738 5745 5750 5754 5759 5763 5766 5768 5772 5776 5778 5779 5782 5790 5797 5798 5799 5800 5802 5804 5807 5809 5810 5812 5814 5816 5818 5821 5823 5826 5828 5830 5833 5836 5838 5840 5841 5842 5843 5845 5847 5849 5852 5854 5855 5857 5859 5860 5861 5862 5862 5864 5865 5867 5869 5870
5706 5712 5712 5717 5720 5719 5728 5740 5745 5746 5749 5753 5757 5760 5764 5768 5771 5773 5775 5781 5787 5791 5793 5795 5797 5799 5799 5801 5804 5807 5809 5811 5813 5815 5817 5819 5821 5824 5826 5829 5832 5834 5836 5838 5839 5840 5842 5844 5847 5849 5851 5852 5854 5856 5857 5858 5859 5860 5861 5863 5864 5866 5867
5698 5703 5705 5707 5710 5718 5733 5742 5741 5741 5745 5749 5753 5757 5760 5763 5766 5768 5771 5776 5780 5784 5788 5790 5792 5793 5794 5795 5799 5803 5806 5808 5810 5812 5813 5816 5818 5820 5822 5825 5827 5829 5831 5834 5836 5837 5839 5841 5844 5845 5846 5848 5850 5852 5853 5854 5855 5857 5858 5860 5861 5862 5863
5689 5694 5698 5700 5706 5720 5732 5734 5734 5738 5740 5743 5748 5751 5753 5756 5760 5763 5767 5771 5775 5778 5782 5785 5786 5788 5790 5792 5795 5798 5802 5804 5806 5808 5810 5812 5814 5816 5818 5821 5823 5825 5827 5830 5833 5834 5836 5837 5839 5840 5841 5843 5845 5847 5848 5850 5851 5853 5854 5855 5857 5858 5859
5682 5688 5692 5695 5704 5716 5722 5725 5728 5731 5734 5738 5743 5745 5747 5751 5755 5760 5763 5767 5770 5773 5777 5780 5782 5784 5787 5789 5790 5792 5796 5800 5803 5804 5806 5808 5810 5813 5815 5817 5819 5820 5822 5825 5827 5829 5831 5833 5834 5835 5837 5838 5839 5841 5843 5845 5846 5848 5849 5850 5852 5854 5855
5677 5683 5686 5691 5699 5708 5714 5717 5721 5725 5729 5735 5740 5743 5744 5747 5752 5756 5759 5762 5765 5769 5772 5776 5778 5780 5783 5785 5786 5788 5792 5796 5799 5801 5803 5804 5806 5809 5811 5813 5815 5816 5818 5821 5823 5824 5826 5828 5830 5831 5833 5834 5834 5836 5838 5840 5841 5842 5844 5846 5847 5849 5851
5671 5676 5681 5687 5694 5701 5707 5712 5716 5720 5725 5730 5735 5737 5738 5741 5747 5751 5753 5756 5760 5764 5768 5772 5774 5777 5779 5780 5783 5785 5788 5791 5795 5797 5799 5801 5803 5806 5808 5810 5812 5814 5816 5818 5820 5820 5822 5825 5826 5827 5827 5828 5830 5831 5832 5834 5836 5838 5840 5841 5843 5844 5846
5665 5670 5676 5682 5687 5694 5701 5706 5710 5715 5720 5725 5727 5726 5729 5735 5741 5744 5748 5751 5755 5759 5764 5767 5771 5774 5776 5777 5780 5782 5785 5787 5790 5792 5795 5797 5799 5802 5804 5806 5808 5810 5812 5814 5816 5817 5819 5821 5822 5823 5823 5824 5825 5827 5828 5829 5831 5834 5836 5838 5838 5839 5840
5659 5664 5672 5677 5682 5689 5696 5701 5705 5710 5716 5720 5720 5721 5727 5733 5737 5740 5745 5748 5751 5755 5759 5763 5767 5770 5772 5774 5776 5778 5781 5783 5785 5788 5790 5792 5795 5797 5800 5802 5804 5806 5808 5810 5812 5813 5815 5816 5818 5819 5820 5821 5822 5823 5824 5825 5827 5830 5831 5832 5833 5833 5834
5651 5658 5666 5672 5678 5685 5692 5696 5700 5704 5710 5715 5718 5723 5729 5731 5734 5739 5743 5745 5748 5752 5755 5758 5762 5765 5768 5770 5772 5774 5776 5779 5781 5784 5786 5788 5790 5792 5795 5797 5799 5801 5803 5805 5807 5809 5811 5812 5813 5814 5815 5817 5818 5819 5820 5821 5823 5825 5826 5826 5827 5828 5829
5644 5651 5659 5666 5673 5681 5688 5692 5695 5700 5706 5712 5716 5722 5725 5727 5732 5737 5739 5742 5746 5748 5751 5754 5757 5760 5763 5765 5767 5770 5772 5775 5777 5780 5782 5784 5786 5788 5790 5792 5794 5796 5798 5800 5802 5803 5804 5806 5807 5808 5810 5811 5812 5813 5814 5816 5818 5820 5820 5820 5821 5822 5823
5641 5646 5652 5660 5670 5677 5683 5688 5692 5696 5702 5707 5711 5717 5721 5724 5728 5732 5736 5739 5742 5744 5747 5750 5752 5756 5758 5760 5763 5765 5768 5770 5773 5775 5777 5779 5781 5783 5785 5787 5789 5791 5793 5795 5796 5798 5798 5799 5801 5802 5803 5805 5806 5807 5808 5810 5811 5812 5813 5814 5814 5814 5815
5640 5644 5650 5658 5667 5674 5679 5685 5689 5693 5699 5704 5708 5713 5716 5719 5723 5727 5731 5734 5737 5740 5743 5745 5748 5751 5754 5756 5759 5761 5763 5766 5769 5771 5774 5775 5777 5779 5781 5783 5785 5787 5788 5789 5791 5792 5793 5794 5795 5796 5797 5799 5800 5801 5803 5804 5804 5805 5806 5807 5807 5807 5808
5639 5642 5648 5655 5664 5670 5676 5682 5686 5690 5696 5700 5705 5708 5711 5713 5717 5720 5724 5728 5731 5735 5738 5741 5744 5747 5749 5752 5755 5757 5760 5762 5765 5767 5770 5771 5773 5775 5777 5778 5780 5781 5783 5784 5785 5786 5787 5788 5789 5790 5791 5792 5794 5795 5796 5797 5797 5798 5799 5799 5800 5800 5800
5636 5639 5644 5652 5661 5667 5671 5677 5683 5688 5693 5696 5699 5701 5703 5706 5710 5713 5717 5721 5725 5729 5732 5736 5739 5742 5745 5748 5751 5753 5756 5759 5761 5763 5765 5767 5769 5770 5772 5773 5774 5776 5777 5778 5779 5780 5782 5783 5783 5784 5785 5787 5788 5789 5789 5790 5791 5791 5791 5791 5792 5792 5793
5633 5637 5642 5648 5656 5661 5666 5673 5681 5686 5689 5689 5689 5692 5695 5699 5702 5707 5710 5714 5719 5723 5727 5731 5734 5737 5740 5743 5747 5750 5752 5754 5757 5759 5761 5762 5764 5765 5766 5767 5769 5770 5771 5772 5773 5774 5776 5777 5778 5779 5780 5781 5782 5783 5783 5784 5784 5784 5784 5784 5784 5784 5785
5631 5636 5640 5645 5650 5656 5664 5672 5678 5683 5687 5685 5681 5682 5687 5692 5696 5700 5705 5709 5713 5717 5722 5726 5729 5732 5734 5738 5742 5745 5747 5749 5752 5753 5755 5757 5758 5759 5761 5762 5763 5764 5765 5766 5767 5768 5769 5770 5771 5772 5773 5775 5775 5776 5777 5777 5777 5777 5778 5778 5778 5778 5779
5628 5633 5637 5641 5646 5653 5662 5669 5674 5679 5683 5681 5676 5675 5681 5687 5691 5695 5700 5704 5708 5713 5717 5720 5723 5726 5730 5733 5736 5739 5742 5744 5745 5747 5749 5750 5751 5753 5755 5756 5758 5759 5759 5760 5761 5762 5763 5764 5765 5766 5767 5768 5768 5769 5770 5770 5771 5771 5771 5771 5772 5771 5771
5626 5630 5632 5636 5641 5648 5656 5663 5669 5674 5676 5675 5672 5670 5673 5680 5686 5690 5695 5700 5704 5708 5712 5715 5718 5721 5725 5728 5731 5733 5735 5737 5738 5740 5742 5743 5745 5747 5749 5750 5752 5753 5753 5754 5755 5756 5756 5758 5759 5759 5760 5760 5761 5762 5762 5762 5763 5763 5763 5763 5763 5762 5761
5622 5625 5628 5632 5636 5642 5649 5655 5660 5663 5665 5666 5667 5666 5667 5673 5680 5686 5690 5695 5700 5704 5707 5710 5713 5717 5720 5723 5725 5727 5729 5730 5732 5734 5736 5737 5739 5741 5742 5744 5745 5746 5747 5748 5749 5749 5750 5751 5752 5753 5753 5753 5754 5754 5754 5754 5754 5753 5753 5753 5753 5752 5752
5615 5618 5622 5627 5631 5636 5642 5648 5652 5655 5656 5659 5661 5662 5664 5669 5676 5681 5686 5691 5695 5699 5703 5706 5710 5713 5715 5717 5719 5721 5723 5724 5725 5727 5729 5731 5733 5734 5736 5737 5738 5740 5741 5742 5742 5742 5743 5744 5745 5745 5745 5745 5746 5746 5747 5747 5747 5745 5745 5744 5743 5743 5743